Hourly Data Report for October 16, 2013

All times are specified in Local Standard Time (LST). Add 1 hour to adjust for Daylight Saving Time where and when it is observed.

SAINT JOHN A
NEW BRUNSWICK

45°18'58.000" N
65°53'24.000" W
108.80 m
8104901
71609
YSJ

Download Data

Hourly Data (October 2013)
Hourly Data Report for October 16, 2013
Temp Definition
°C
Dew Point Temp Definition
°C
Rel Hum Definition
%
Wind Dir Definition
10's deg

Wind Spd Definition
km/h
Visibility Definition
km
Stn Press Definition
kPa
Hmdx Definition


Wind Chill Definition


Weather Definition


TIME
00:00 Legend Double Dagger 8.5 6.3 86 10 8 24.1 101.19     LegendNANA
01:00 Legend Double Dagger 8.7 7.0 89 11 17 24.1 101.18     LegendNANA
02:00 Legend Double Dagger 8.9 7.2 89 11 19 24.1 101.17     Mainly Clear
03:00 Legend Double Dagger 8.6 7.4 92 10 19 24.1 101.11     LegendNANA
04:00 Legend Double Dagger 8.4 7.2 92 10 17 24.1 101.11     LegendNANA
05:00 Legend Double Dagger 8.5 7.4 93 10 13 24.1 101.11     Mostly Cloudy
06:00 Legend Double Dagger 9.4 8.0 91 12 16 24.1 101.09     LegendNANA
07:00 Legend Double Dagger 9.3 8.7 96 11 18 16.1 101.11     LegendNANA
08:00 Legend Double Dagger 10.2 9.6 96 12 17 12.9 101.14     Cloudy
09:00 Legend Double Dagger 10.9 9.7 92 12 19 19.3 101.11     LegendNANA
10:00 Legend Double Dagger 11.6 9.7 88 13 17 24.1 101.09     LegendNANA
11:00 Legend Double Dagger 12.2 9.8 85 12 16 24.1 101.01     Cloudy
12:00 Legend Double Dagger 14.4 10.1 75 13 22 24.1 100.90     LegendNANA
13:00 Legend Double Dagger 13.9 10.2 78 12 20 24.1 100.80     LegendNANA
14:00 Legend Double Dagger 13.0 10.6 85 13 15 24.1 100.73     Rain Showers
15:00 Legend Double Dagger 11.9 11.4 97 11 14 16.1 100.67     Rain Showers
16:00 Legend Double Dagger 12.4 11.9 97 11 22 4.8 100.58     Rain Showers,Fog
17:00 Legend Double Dagger 12.4 11.9 97 12 24 2.4 100.52     Moderate Rain,Fog
18:00 Legend Double Dagger 12.3 11.8 97 11 23 6.4 100.43     Rain,Fog
19:00 Legend Double Dagger 12.4 11.9 97 11 27 6.4 100.37     Rain,Fog
20:00 Legend Double Dagger 12.4 11.9 97 11 24 6.4 100.33     Rain,Fog
21:00 Legend Double Dagger 12.7 12.2 97 11 23 6.4 100.24     Rain,Fog
22:00 Legend Double Dagger 13.1 12.6 97 11 23 4.8 100.14     Fog
23:00 Legend Double Dagger 13.4 13.1 98 12 18 4.8 100.03     Rain,Fog

Notes on Data Quality.

Legend

  • E = Estimated
  • M = Missing
  • NA = Not Available
  • ‡ = Partner data that is not subject to review by the National Climate Archives
Date modified: